EW6420 Weather Reports


time (UTC)temp
C
wind
direction
speed
KPH
gust
KPH
rain 1hr
cm
rain 24hr
cm
rain mn
cm
humidity
%
barometer
mb
20260503214503 24 69 0.0 3.2 0.00 0.00 0.00 47 1011.0
20260503213004 24 68 0.0 3.2 0.00 0.00 0.00 47 1011.1
20260503211504 23 83 1.6 4.8 0.00 0.00 0.00 47 1011.2
20260503210005 23 66 0.0 3.2 0.00 0.00 0.00 50 1011.4
20260503203005 23 90 0.0 6.4 0.00 0.00 0.00 51 1011.7
20260503201505 22 142 0.0 4.8 0.00 0.00 0.00 53 1011.8
20260503193006 21 135 0.0 3.2 0.00 0.00 0.00 57 1012.4
20260503191507 21 87 0.0 3.2 0.00 0.00 0.00 57 1012.6
20260503184504 20 88 0.0 1.6 0.00 0.00 0.00 59 1012.8
20260503183005 20 88 0.0 4.8 0.00 0.00 0.00 62 1013.0
20260503181505 20 92 0.0 4.8 0.00 0.00 0.00 63 1013.1
20260503180006 19 81 0.0 3.2 0.00 0.00 0.00 64 1013.3
20260503174502 18 70 0.0 1.6 0.00 0.00 0.00 66 1013.3
20260503173003 18 87 0.0 4.8 0.00 0.00 0.00 66 1013.3
20260503171503 18 92 0.0 4.8 0.00 0.00 0.00 67 1013.4
20260503071505 14 80 0.0 0.0 0.00 0.00 0.00 77 1014.0
20260503054504 15 80 0.0 0.0 0.00 0.00 0.00 72 1013.8
20260503051505 16 80 0.0 0.0 0.00 0.00 0.00 69 1013.7
20260503050005 16 80 0.0 0.0 0.00 0.00 0.00 67 1013.6
20260503044504 17 80 0.0 0.0 0.00 0.00 0.00 64 1013.5
20260503043003 17 80 0.0 0.0 0.00 0.00 0.00 64 1013.4
20260503041502 17 80 0.0 0.0 0.00 0.00 0.00 61 1013.1
20260503040004 18 80 0.0 0.0 0.00 0.00 0.00 60 1013.0
20260503034503 18 80 0.0 0.0 0.00 0.00 0.00 58 1012.8
20260503033005 19 80 0.0 0.0 0.00 0.00 0.00 57 1012.6
20260503024503 20 80 0.0 0.0 0.00 0.00 0.00 56 1012.2
20260503021504 21 80 0.0 0.0 0.00 0.00 0.00 54 1012.2
20260503020005 21 80 0.0 3.2 0.00 0.00 0.00 53 1012.1
20260503014504 21 80 0.0 3.2 0.00 0.00 0.00 52 1012.1
20260503013005 21 78 0.0 3.2 0.00 0.00 0.00 51 1012.1
20260503011505 22 77 0.0 3.2 0.00 0.00 0.00 51 1012.2
20260503010006 22 77 0.0 4.8 0.00 0.00 0.00 50 1012.2
20260503003005 22 148 0.0 4.8 0.00 0.00 0.00 49 1012.4
20260503001506 22 82 0.0 3.2 0.00 0.00 0.00 50 1012.4
20260503000005 22 100 1.6 6.4 0.00 0.00 0.00 52 1012.5
20260502234504 21 153 0.0 3.2 0.00 0.00 0.00 53 1012.6
20260502233005 21 94 1.6 8.0 0.00 0.00 0.00 53 1012.9
20260502231504 21 83 1.6 4.8 0.00 0.00 0.00 54 1013.1
20260502230003 21 118 0.0 3.2 0.00 0.00 0.00 55 1013.3
20260502224503 21 123 1.6 6.4 0.00 0.00 0.00 56 1013.5
20260502223004 21 78 1.6 6.4 0.00 0.00 0.00 57 1013.8
20260502221504 21 130 0.0 6.4 0.00 0.00 0.00 58 1013.9
20260502220007 21 103 0.0 4.8 0.00 0.00 0.00 60 1014.0